Location: Bellerive
(46.9237°N, 7.0223°E)
Time: 09:57:08
(UTC+00:00)

Cosmos 2322 Rocket - Pass Details

Date: 09 April 2020
Orbit: 834 x 849 km, 71.0° (Epoch: 06 June)

Event Time Altitude Azimuth Distance (km) Brightness Sun altitude
Rises 21:34:35 0° 338° (NNW) 3,405 6.5 -29.1°
Reaches altitude 10° 21:37:26 10° 351° (N) 2,464 5.4 -29.3°
Maximum altitude 21:42:11 27° 48° (NE) 1,561 3.6 -29.8°
Enters shadow 21:42:17 27° 50° (NE) 1,562 3.6 -29.8°
